| time (UTC) | temp C | wind direction | speed KPH | gust KPH | rain 1hr cm | rain 24hr cm | rain mn cm | humidity % | barometer mb |
| 20260902114553 | 19 | 257 | 20.9 | 35.4 | 0.00 | 0.00 | 0.00 | 50 | 1008.5 |
| 20260902114034 | 20 | 237 | 12.9 | 25.7 | 0.00 | 0.00 | 0.00 | 49 | 1008.6 |
| 20260902113534 | 19 | 236 | 17.7 | 25.7 | 0.00 | 0.00 | 0.00 | 51 | 1008.7 |
| 20260902113053 | 18 | 264 | 9.7 | 29.0 | 0.00 | 0.00 | 0.00 | 52 | 1008.6 |
| 20260902112534 | 18 | 323 | 17.7 | 29.0 | 0.00 | 0.00 | 0.00 | 51 | 1008.7 |
| 20260902112031 | 19 | 229 | 12.9 | 24.1 | 0.00 | 0.00 | 0.00 | 52 | 1008.7 |
| 20260902111547 | 18 | 257 | 11.3 | 24.1 | 0.00 | 0.00 | 0.00 | 53 | 1008.8 |
| 20260902111032 | 18 | 218 | 9.7 | 32.2 | 0.00 | 0.00 | 0.00 | 53 | 1008.9 |
| 20260902110534 | 18 | 250 | 19.3 | 32.2 | 0.00 | 0.00 | 0.00 | 54 | 1008.9 |
| 20260902110050 | 18 | 218 | 9.7 | 22.5 | 0.00 | 0.00 | 0.00 | 54 | 1008.8 |
| 20260902105535 | 17 | 255 | 9.7 | 19.3 | 0.00 | 0.00 | 0.00 | 54 | 1008.9 |
| 20260902105034 | 17 | 283 | 6.4 | 24.1 | 0.00 | 0.00 | 0.00 | 55 | 1009.0 |
| 20260902104610 | 17 | 304 | 11.3 | 30.6 | 0.00 | 0.00 | 0.00 | 54 | 1009.0 |
| 20260902104036 | 18 | 252 | 16.1 | 32.2 | 0.00 | 0.00 | 0.00 | 53 | 1009.0 |
| 20260902103532 | 18 | 231 | 16.1 | 32.2 | 0.00 | 0.00 | 0.00 | 53 | 1008.9 |
| 20260902103106 | 18 | 225 | 12.9 | 32.2 | 0.00 | 0.00 | 0.00 | 54 | 1008.9 |
| 20260902102534 | 17 | 256 | 14.5 | 24.1 | 0.00 | 0.00 | 0.00 | 55 | 1009.0 |
| 20260902102031 | 17 | 248 | 9.7 | 27.4 | 0.00 | 0.00 | 0.00 | 55 | 1009.0 |
| 20260902101554 | 17 | 255 | 14.5 | 27.4 | 0.00 | 0.00 | 0.00 | 54 | 1009.0 |
| 20260902101032 | 17 | 250 | 14.5 | 24.1 | 0.00 | 0.00 | 0.00 | 56 | 1009.0 |
| 20260902100532 | 17 | 224 | 11.3 | 24.1 | 0.00 | 0.00 | 0.00 | 55 | 1009.0 |
| 20260902100044 | 17 | 308 | 14.5 | 24.1 | 0.00 | 0.00 | 0.00 | 54 | 1009.0 |
| 20260902095534 | 17 | 294 | 14.5 | 30.6 | 0.00 | 0.00 | 0.00 | 54 | 1009.0 |
| 20260902095032 | 17 | 232 | 16.1 | 30.6 | 0.00 | 0.00 | 0.00 | 55 | 1009.1 |
| 20260902094552 | 17 | 252 | 12.9 | 24.1 | 0.00 | 0.00 | 0.00 | 57 | 1009.0 |
| 20260902094031 | 17 | 323 | 8.0 | 27.4 | 0.00 | 0.00 | 0.00 | 55 | 1009.1 |
| 20260902093534 | 17 | 236 | 16.1 | 27.4 | 0.00 | 0.00 | 0.00 | 54 | 1009.0 |
| 20260902093047 | 17 | 224 | 16.1 | 27.4 | 0.00 | 0.00 | 0.00 | 55 | 1009.1 |
| 20260902092532 | 17 | 221 | 9.7 | 24.1 | 0.00 | 0.00 | 0.00 | 55 | 1009.1 |
| 20260902092034 | 17 | 268 | 8.0 | 27.4 | 0.00 | 0.00 | 0.00 | 57 | 1009.0 |
| 20260902091547 | 16 | 289 | 11.3 | 27.4 | 0.00 | 0.00 | 0.00 | 58 | 1009.1 |
| 20260902091035 | 17 | 250 | 14.5 | 22.5 | 0.00 | 0.00 | 0.00 | 56 | 1009.2 |
| 20260902090535 | 17 | 214 | 6.4 | 19.3 | 0.00 | 0.00 | 0.00 | 59 | 1009.2 |
| 20260902090051 | 16 | 206 | 9.7 | 17.7 | 0.00 | 0.00 | 0.00 | 58 | 1009.2 |
| 20260902085534 | 16 | 263 | 11.3 | 19.3 | 0.00 | 0.00 | 0.00 | 59 | 1009.2 |
| 20260902085034 | 16 | 219 | 6.4 | 29.0 | 0.00 | 0.00 | 0.00 | 60 | 1009.2 |
| 20260902084554 | 16 | 258 | 14.5 | 29.0 | 0.00 | 0.00 | 0.00 | 57 | 1009.3 |
| 20260902084032 | 16 | 219 | 11.3 | 20.9 | 0.00 | 0.00 | 0.00 | 58 | 1009.2 |
| 20260902083533 | 16 | 292 | 11.3 | 20.9 | 0.00 | 0.00 | 0.00 | 58 | 1009.1 |
| 20260902083051 | 16 | 278 | 9.7 | 17.7 | 0.00 | 0.00 | 0.00 | 58 | 1009.1 |
| 20260902082531 | 16 | 236 | 8.0 | 16.1 | 0.00 | 0.00 | 0.00 | 61 | 1009.1 |
| 20260902082031 | 15 | 252 | 9.7 | 16.1 | 0.00 | 0.00 | 0.00 | 62 | 1009.1 |
| 20260902081552 | 15 | 218 | 9.7 | 19.3 | 0.00 | 0.00 | 0.00 | 60 | 1009.1 |
| 20260902081031 | 15 | 212 | 9.7 | 19.3 | 0.00 | 0.00 | 0.00 | 62 | 1009.0 |
| 20260902080531 | 15 | 244 | 12.9 | 19.3 | 0.00 | 0.00 | 0.00 | 61 | 1009.1 |
| 20260902080050 | 15 | 229 | 8.0 | 16.1 | 0.00 | 0.00 | 0.00 | 65 | 1009.1 |
| 20260902075531 | 15 | 260 | 9.7 | 16.1 | 0.00 | 0.00 | 0.00 | 66 | 1009.1 |
| 20260902075032 | 15 | 303 | 6.4 | 19.3 | 0.00 | 0.00 | 0.00 | 65 | 1009.0 |
| 20260902074547 | 14 | 278 | 9.7 | 19.3 | 0.00 | 0.00 | 0.00 | 66 | 1009.0 |
| 20260902074034 | 14 | 177 | 8.0 | 16.1 | 0.00 | 0.00 | 0.00 | 68 | 1008.9 |
| 20260902073534 | 14 | 207 | 9.7 | 14.5 | 0.00 | 0.00 | 0.00 | 68 | 1008.9 |
| 20260902073053 | 13 | 239 | 8.0 | 14.5 | 0.00 | 0.00 | 0.00 | 71 | 1008.9 |
| 20260902072531 | 13 | 214 | 8.0 | 14.5 | 0.00 | 0.00 | 0.00 | 72 | 1008.8 |
| 20260902072059 | 13 | 214 | 8.0 | 17.7 | 0.00 | 0.00 | 0.00 | 71 | 1008.8 |
| 20260902071552 | 13 | 214 | 9.7 | 17.7 | 0.00 | 0.00 | 0.00 | 73 | 1008.8 |
| 20260902071031 | 13 | 214 | 8.0 | 14.5 | 0.00 | 0.00 | 0.00 | 74 | 1008.8 |
| 20260902070534 | 13 | 213 | 8.0 | 14.5 | 0.00 | 0.00 | 0.00 | 75 | 1008.8 |
| 20260902070050 | 13 | 221 | 9.7 | 14.5 | 0.00 | 0.00 | 0.00 | 77 | 1008.7 |
| 20260902065534 | 12 | 229 | 8.0 | 14.5 | 0.00 | 0.00 | 0.00 | 78 | 1008.8 |
| 20260902065035 | 12 | 230 | 8.0 | 19.3 | 0.00 | 0.00 | 0.00 | 79 | 1008.7 |
| 20260902064547 | 12 | 257 | 9.7 | 19.3 | 0.00 | 0.00 | 0.00 | 80 | 1008.6 |
| 20260902064034 | 12 | 241 | 11.3 | 19.3 | 0.00 | 0.00 | 0.00 | 79 | 1008.7 |
| 20260902063532 | 12 | 216 | 9.7 | 19.3 | 0.00 | 0.00 | 0.00 | 80 | 1008.5 |
| 20260902063106 | 12 | 227 | 8.0 | 12.9 | 0.00 | 0.00 | 0.00 | 82 | 1008.4 |
| 20260902062536 | 11 | 234 | 6.4 | 12.9 | 0.00 | 0.00 | 0.00 | 84 | 1008.4 |
| 20260902062034 | 11 | 215 | 6.4 | 12.9 | 0.00 | 0.00 | 0.00 | 86 | 1008.5 |
| 20260902061040 | 11 | 238 | 3.2 | 9.7 | 0.00 | 0.00 | 0.00 | 88 | 1008.4 |
| 20260902060534 | 11 | 207 | 1.6 | 9.7 | 0.00 | 0.00 | 0.00 | 89 | 1008.3 |
| 20260902060058 | 10 | 220 | 3.2 | 6.4 | 0.00 | 0.00 | 0.00 | 90 | 1008.3 |
| 20260902055533 | 10 | 199 | 1.6 | 4.8 | 0.00 | 0.00 | 0.00 | 91 | 1008.1 |
| 20260902055033 | 10 | 133 | 0.0 | 9.7 | 0.00 | 0.00 | 0.00 | 92 | 1008.0 |
| 20260902054555 | 10 | 271 | 1.6 | 11.3 | 0.00 | 0.00 | 0.00 | 93 | 1008.2 |
| 20260902054032 | 10 | 139 | 6.4 | 11.3 | 0.00 | 0.00 | 0.00 | 93 | 1008.0 |
| 20260902053536 | 10 | 0 | 0.0 | 6.4 | 0.00 | 0.00 | 0.00 | 93 | 1007.9 |
| 20260902053047 | 9 | 0 | 0.0 | 6.4 | 0.00 | 0.00 | 0.00 | 93 | 1007.9 |
| 20260902052532 | 9 | 109 | 0.0 | 1.6 | 0.00 | 0.00 | 0.00 | 93 | 1007.9 |
| 20260902052031 | 9 | 0 | 0.0 | 0.0 | 0.00 | 0.00 | 0.00 | 92 | 1007.9 |
| 20260902051557 | 9 | 0 | 0.0 | 0.0 | 0.00 | 0.00 | 0.00 | 92 | 1008.1 |
| 20260902051031 | 9 | 0 | 0.0 | 3.2 | 0.00 | 0.00 | 0.00 | 92 | 1008.0 |
| 20260902050532 | 9 | 0 | 0.0 | 3.2 | 0.00 | 0.00 | 0.00 | 92 | 1008.0 |
| 20260902050046 | 9 | 143 | 0.0 | 1.6 | 0.00 | 0.00 | 0.00 | 92 | 1008.1 |
| 20260902045531 | 9 | 0 | 0.0 | 4.8 | 0.00 | 0.00 | 0.00 | 92 | 1008.0 |
| 20260902045034 | 9 | 162 | 0.0 | 4.8 | 0.00 | 0.00 | 0.00 | 92 | 1008.1 |
| 20260902044606 | 9 | 207 | 1.6 | 4.8 | 0.00 | 0.00 | 0.00 | 91 | 1007.9 |
| 20260902044032 | 10 | 0 | 0.0 | 4.8 | 0.00 | 0.00 | 0.00 | 91 | 1008.0 |
| 20260902043530 | 10 | 0 | 0.0 | 4.8 | 0.00 | 0.00 | 0.00 | 92 | 1007.9 |
| 20260902043049 | 10 | 24 | 1.6 | 4.8 | 0.00 | 0.00 | 0.00 | 92 | 1008.0 |
| 20260902042532 | 9 | 0 | 1.6 | 3.2 | 0.00 | 0.00 | 0.00 | 91 | 1007.9 |
| 20260902042034 | 9 | 0 | 0.0 | 3.2 | 0.00 | 0.00 | 0.00 | 91 | 1007.8 |
| 20260902041557 | 10 | 79 | 1.6 | 3.2 | 0.00 | 0.00 | 0.00 | 91 | 1007.9 |
| 20260902041031 | 9 | 0 | 0.0 | 3.2 | 0.00 | 0.00 | 0.00 | 91 | 1007.8 |
| 20260902040531 | 10 | 94 | 1.6 | 3.2 | 0.00 | 0.00 | 0.00 | 91 | 1007.8 |
| 20260902040054 | 10 | 87 | 0.0 | 3.2 | 0.00 | 0.00 | 0.00 | 90 | 1007.8 |
| 20260902035531 | 10 | 104 | 0.0 | 3.2 | 0.00 | 0.00 | 0.00 | 90 | 1007.8 |
| 20260902035035 | 10 | 0 | 0.0 | 0.0 | 0.00 | 0.00 | 0.00 | 90 | 1007.8 |
| 20260902034552 | 10 | 0 | 0.0 | 0.0 | 0.00 | 0.00 | 0.00 | 90 | 1007.9 |
| 20260902034034 | 10 | 0 | 0.0 | 0.0 | 0.00 | 0.00 | 0.00 | 90 | 1007.9 |
| 20260902033531 | 10 | 0 | 0.0 | 0.0 | 0.00 | 0.00 | 0.00 | 89 | 1007.9 |
| 20260902033045 | 10 | 0 | 0.0 | 0.0 | 0.00 | 0.00 | 0.00 | 89 | 1007.8 |
| 20260902032534 | 10 | 0 | 0.0 | 0.0 | 0.00 | 0.00 | 0.00 | 89 | 1007.8 |
| 20260902032030 | 10 | 0 | 0.0 | 3.2 | 0.00 | 0.00 | 0.00 | 89 | 1007.9 |
| 20260902031601 | 10 | 0 | 0.0 | 8.0 | 0.00 | 0.00 | 0.00 | 89 | 1007.8 |
| 20260902031035 | 10 | 169 | 1.6 | 8.0 | 0.00 | 0.00 | 0.00 | 89 | 1007.8 |
| 20260902030537 | 10 | 0 | 0.0 | 3.2 | 0.00 | 0.00 | 0.00 | 89 | 1007.8 |
| 20260902030057 | 10 | 0 | 0.0 | 3.2 | 0.00 | 0.00 | 0.00 | 89 | 1007.8 |
| 20260902025535 | 10 | 0 | 0.0 | 3.2 | 0.00 | 0.00 | 0.00 | 89 | 1007.8 |
| 20260902025034 | 10 | 0 | 0.0 | 3.2 | 0.00 | 0.00 | 0.00 | 89 | 1007.7 |
| 20260902024557 | 10 | 0 | 0.0 | 3.2 | 0.00 | 0.00 | 0.00 | 89 | 1007.9 |
| 20260902024033 | 11 | 0 | 0.0 | 3.2 | 0.00 | 0.00 | 0.00 | 89 | 1007.8 |
| 20260902023536 | 10 | 0 | 0.0 | 3.2 | 0.00 | 0.00 | 0.00 | 89 | 1007.9 |
| 20260902023047 | 11 | 109 | 0.0 | 1.6 | 0.00 | 0.00 | 0.00 | 88 | 1007.8 |
| 20260902022532 | 11 | 0 | 0.0 | 1.6 | 0.00 | 0.00 | 0.00 | 88 | 1007.8 |
| 20260902022033 | 11 | 0 | 0.0 | 3.2 | 0.00 | 0.00 | 0.00 | 87 | 1008.0 |
| 20260902021553 | 11 | 0 | 0.0 | 4.8 | 0.00 | 0.00 | 0.00 | 87 | 1007.9 |
| 20260902021034 | 11 | 82 | 0.0 | 4.8 | 0.00 | 0.00 | 0.00 | 87 | 1007.8 |
| 20260902020533 | 11 | 102 | 3.2 | 4.8 | 0.00 | 0.00 | 0.00 | 87 | 1007.9 |
| 20260902020058 | 11 | 125 | 1.6 | 4.8 | 0.00 | 0.00 | 0.00 | 86 | 1008.0 |
| 20260902015533 | 11 | 134 | 1.6 | 4.8 | 0.00 | 0.00 | 0.00 | 85 | 1007.9 |
| 20260902015036 | 12 | 185 | 1.6 | 8.0 | 0.00 | 0.00 | 0.00 | 85 | 1007.9 |
| 20260902014546 | 12 | 155 | 0.0 | 8.0 | 0.00 | 0.00 | 0.00 | 86 | 1008.0 |
| 20260902014035 | 12 | 209 | 4.8 | 8.0 | 0.00 | 0.00 | 0.00 | 86 | 1008.1 |
| 20260902013533 | 11 | 256 | 4.8 | 6.4 | 0.00 | 0.00 | 0.00 | 87 | 1008.1 |
| 20260902013047 | 11 | 187 | 3.2 | 8.0 | 0.00 | 0.00 | 0.00 | 87 | 1008.2 |
| 20260902012534 | 11 | 0 | 0.0 | 8.0 | 0.00 | 0.00 | 0.00 | 88 | 1008.2 |
| 20260902012033 | 11 | 178 | 4.8 | 9.7 | 0.00 | 0.00 | 0.00 | 88 | 1008.1 |
| 20260902011551 | 11 | 216 | 4.8 | 9.7 | 0.00 | 0.00 | 0.00 | 87 | 1008.0 |
| 20260902011037 | 12 | 207 | 4.8 | 9.7 | 0.00 | 0.00 | 0.00 | 87 | 1008.1 |
| 20260902010530 | 12 | 184 | 4.8 | 9.7 | 0.00 | 0.00 | 0.00 | 88 | 1008.1 |
| 20260902010047 | 12 | 224 | 1.6 | 6.4 | 0.00 | 0.00 | 0.00 | 89 | 1008.3 |
| 20260902005531 | 12 | 217 | 1.6 | 4.8 | 0.00 | 0.00 | 0.00 | 89 | 1008.1 |
| 20260902005031 | 12 | 143 | 0.0 | 4.8 | 0.00 | 0.00 | 0.00 | 90 | 1008.3 |
| 20260902004556 | 12 | 141 | 3.2 | 6.4 | 0.00 | 0.00 | 0.00 | 90 | 1008.2 |
| 20260902004032 | 12 | 206 | 3.2 | 9.7 | 0.00 | 0.00 | 0.00 | 90 | 1008.3 |
| 20260902003530 | 12 | 227 | 6.4 | 9.7 | 0.00 | 0.00 | 0.00 | 90 | 1008.2 |
| 20260902003053 | 12 | 224 | 3.2 | 9.7 | 0.00 | 0.00 | 0.00 | 91 | 1008.3 |
| 20260902002533 | 13 | 206 | 4.8 | 11.3 | 0.00 | 0.00 | 0.00 | 91 | 1008.3 |
| 20260902002030 | 12 | 178 | 4.8 | 11.3 | 0.00 | 0.00 | 0.00 | 92 | 1008.3 |
| 20260902001551 | 13 | 165 | 4.8 | 11.3 | 0.00 | 0.00 | 0.00 | 92 | 1008.3 |
| 20260902001030 | 13 | 184 | 3.2 | 8.0 | 0.00 | 0.00 | 0.00 | 93 | 1008.4 |
| 20260902000530 | 13 | 212 | 3.2 | 8.0 | 0.00 | 0.00 | 0.00 | 93 | 1008.4 |
| 20260902000044 | 12 | 146 | 1.6 | 4.8 | 0.00 | 0.00 | 0.00 | 94 | 1008.4 |
| 20260901235532 | 12 | 0 | 0.0 | 4.8 | 0.00 | 0.00 | 0.00 | 94 | 1008.5 |
| 20260901235035 | 12 | 134 | 1.6 | 4.8 | 0.00 | 0.00 | 0.00 | 94 | 1008.4 |
| 20260901234547 | 12 | 0 | 0.0 | 6.4 | 0.00 | 0.00 | 0.00 | 94 | 1008.3 |
| 20260901234033 | 12 | 86 | 1.6 | 6.4 | 0.00 | 0.00 | 0.00 | 94 | 1008.3 |
| 20260901233531 | 12 | 105 | 1.6 | 6.4 | 0.00 | 0.00 | 0.00 | 94 | 1008.4 |
| 20260901233049 | 12 | 0 | 0.0 | 1.6 | 0.00 | 0.00 | 0.00 | 94 | 1008.2 |
| 20260901232531 | 12 | 0 | 0.0 | 1.6 | 0.00 | 0.00 | 0.00 | 94 | 1008.3 |
| 20260901232034 | 12 | 0 | 0.0 | 1.6 | 0.00 | 0.00 | 0.00 | 94 | 1008.5 |
| 20260901231550 | 12 | 110 | 0.0 | 1.6 | 0.00 | 0.00 | 0.00 | 94 | 1008.4 |
| 20260901231030 | 12 | 0 | 0.0 | 0.0 | 0.00 | 0.00 | 0.00 | 94 | 1008.4 |
| 20260901230534 | 12 | 0 | 0.0 | 3.2 | 0.00 | 0.00 | 0.00 | 94 | 1008.3 |
| 20260901230107 | 12 | 0 | 0.0 | 3.2 | 0.00 | 0.00 | 0.00 | 94 | 1008.1 |
| 20260901225533 | 12 | 109 | 0.0 | 0.0 | 0.00 | 0.00 | 0.00 | 94 | 1008.1 |
| 20260901225031 | 12 | 0 | 0.0 | 1.6 | 0.00 | 0.00 | 0.00 | 94 | 1008.1 |
| 20260901224550 | 12 | 0 | 0.0 | 4.8 | 0.00 | 0.00 | 0.00 | 94 | 1008.1 |
| 20260901224031 | 12 | 0 | 0.0 | 4.8 | 0.00 | 0.00 | 0.00 | 94 | 1008.1 |
| 20260901223534 | 12 | 98 | 1.6 | 4.8 | 0.00 | 0.00 | 0.00 | 93 | 1008.2 |
| 20260901223055 | 12 | 0 | 1.6 | 3.2 | 0.00 | 0.00 | 0.00 | 93 | 1008.2 |
| 20260901222536 | 12 | 0 | 0.0 | 0.0 | 0.00 | 0.00 | 0.00 | 93 | 1008.2 |
| 20260901222036 | 12 | 0 | 0.0 | 0.0 | 0.00 | 0.00 | 0.00 | 93 | 1008.2 |
| 20260901221607 | 12 | 0 | 0.0 | 0.0 | 0.00 | 0.00 | 0.00 | 93 | 1008.1 |
| 20260901221033 | 12 | 0 | 0.0 | 1.6 | 0.00 | 0.00 | 0.00 | 93 | 1008.2 |
| 20260901220532 | 12 | 0 | 0.0 | 3.2 | 0.00 | 0.00 | 0.00 | 93 | 1008.2 |
| 20260901220048 | 12 | 0 | 0.0 | 3.2 | 0.00 | 0.00 | 0.00 | 93 | 1008.2 |
| 20260901215535 | 12 | 104 | 1.6 | 3.2 | 0.00 | 0.00 | 0.00 | 93 | 1008.1 |
| 20260901215031 | 12 | 110 | 1.6 | 3.2 | 0.00 | 0.00 | 0.00 | 93 | 1008.1 |
| 20260901214546 | 12 | 112 | 1.6 | 3.2 | 0.00 | 0.00 | 0.00 | 93 | 1008.2 |
| 20260901214033 | 12 | 106 | 0.0 | 4.8 | 0.00 | 0.00 | 0.00 | 93 | 1008.1 |
| 20260901213537 | 13 | 140 | 0.0 | 4.8 | 0.00 | 0.00 | 0.00 | 93 | 1008.1 |
| 20260901213056 | 13 | 143 | 0.0 | 3.2 | 0.00 | 0.00 | 0.00 | 93 | 1008.0 |
| 20260901212533 | 13 | 117 | 0.0 | 3.2 | 0.00 | 0.00 | 0.00 | 93 | 1008.0 |
| 20260901212032 | 13 | 160 | 0.0 | 3.2 | 0.00 | 0.00 | 0.00 | 93 | 1008.1 |
| 20260901211551 | 12 | 0 | 0.0 | 3.2 | 0.00 | 0.00 | 0.00 | 93 | 1008.1 |
| 20260901211032 | 12 | 138 | 0.0 | 3.2 | 0.00 | 0.00 | 0.00 | 93 | 1008.2 |
| 20260901210534 | 13 | 141 | 0.0 | 6.4 | 0.00 | 0.00 | 0.00 | 93 | 1008.1 |
| 20260901210047 | 13 | 0 | 0.0 | 6.4 | 0.00 | 0.00 | 0.00 | 93 | 1008.2 |
| 20260901205532 | 12 | 123 | 3.2 | 4.8 | 0.00 | 0.00 | 0.00 | 92 | 1008.3 |
| 20260901205034 | 12 | 111 | 3.2 | 4.8 | 0.00 | 0.00 | 0.00 | 92 | 1008.3 |
| 20260901204544 | 13 | 124 | 3.2 | 4.8 | 0.00 | 0.00 | 0.00 | 92 | 1008.3 |
| 20260901204030 | 13 | 116 | 1.6 | 4.8 | 0.00 | 0.00 | 0.00 | 92 | 1008.5 |
| 20260901203533 | 13 | 105 | 1.6 | 4.8 | 0.00 | 0.00 | 0.00 | 92 | 1008.4 |
| 20260901203056 | 13 | 0 | 0.0 | 0.0 | 0.00 | 0.00 | 0.00 | 92 | 1008.5 |
| 20260901202533 | 13 | 0 | 0.0 | 0.0 | 0.00 | 0.00 | 0.00 | 91 | 1008.4 |
| 20260901202033 | 13 | 0 | 0.0 | 0.0 | 0.00 | 0.00 | 0.00 | 91 | 1008.6 |
| 20260901201550 | 13 | 0 | 0.0 | 0.0 | 0.00 | 0.00 | 0.00 | 91 | 1008.4 |
| 20260901201037 | 13 | 0 | 0.0 | 0.0 | 0.00 | 0.00 | 0.00 | 91 | 1008.4 |
| 20260901200530 | 13 | 0 | 0.0 | 0.0 | 0.00 | 0.00 | 0.00 | 91 | 1008.4 |
| 20260901200045 | 13 | 0 | 0.0 | 0.0 | 0.00 | 0.00 | 0.00 | 91 | 1008.5 |
| 20260901195530 | 13 | 0 | 0.0 | 0.0 | 0.00 | 0.00 | 0.00 | 91 | 1008.5 |
| 20260901195031 | 13 | 0 | 0.0 | 1.6 | 0.00 | 0.00 | 0.00 | 90 | 1008.5 |
| 20260901194544 | 13 | 0 | 0.0 | 3.2 | 0.00 | 0.00 | 0.00 | 90 | 1008.3 |
| 20260901194034 | 13 | 0 | 0.0 | 3.2 | 0.00 | 0.00 | 0.00 | 90 | 1008.6 |
| 20260901193533 | 13 | 168 | 0.0 | 1.6 | 0.00 | 0.00 | 0.00 | 90 | 1008.5 |
| 20260901193047 | 13 | 0 | 0.0 | 3.2 | 0.00 | 0.00 | 0.00 | 90 | 1008.6 |
| 20260901192537 | 13 | 0 | 0.0 | 4.8 | 0.00 | 0.00 | 0.00 | 90 | 1008.5 |
| 20260901192030 | 13 | 174 | 0.0 | 4.8 | 0.00 | 0.00 | 0.00 | 90 | 1008.4 |
| 20260901191545 | 13 | 168 | 1.6 | 4.8 | 0.00 | 0.00 | 0.00 | 89 | 1008.5 |
| 20260901191033 | 13 | 221 | 1.6 | 3.2 | 0.00 | 0.00 | 0.00 | 89 | 1008.5 |
| 20260901190533 | 14 | 210 | 0.0 | 3.2 | 0.00 | 0.00 | 0.00 | 89 | 1008.5 |
| 20260901190049 | 14 | 0 | 0.0 | 3.2 | 0.00 | 0.00 | 0.00 | 88 | 1008.6 |
| 20260901185634 | 14 | 0 | 0.0 | 6.4 | 0.00 | 0.00 | 0.00 | 88 | 1008.5 |
| 20260901185033 | 15 | 0 | 0.0 | 6.4 | 0.00 | 0.00 | 0.00 | 88 | 1008.6 |
| 20260901184545 | 15 | 127 | 3.2 | 6.4 | 0.00 | 0.00 | 0.00 | 88 | 1008.5 |
| 20260901184033 | 15 | 141 | 1.6 | 6.4 | 0.00 | 0.00 | 0.00 | 88 | 1008.5 |
| 20260901183533 | 15 | 206 | 3.2 | 9.7 | 0.00 | 0.00 | 0.00 | 88 | 1008.5 |
| 20260901183109 | 15 | 195 | 1.6 | 9.7 | 0.00 | 0.00 | 0.00 | 87 | 1008.5 |
| 20260901182533 | 15 | 153 | 3.2 | 8.0 | 0.00 | 0.00 | 0.00 | 87 | 1008.6 |
| 20260901182034 | 15 | 184 | 1.6 | 6.4 | 0.00 | 0.00 | 0.00 | 87 | 1008.6 |
| 20260901181552 | 15 | 0 | 1.6 | 6.4 | 0.00 | 0.00 | 0.00 | 86 | 1008.5 |
| 20260901181034 | 15 | 151 | 1.6 | 6.4 | 0.00 | 0.00 | 0.00 | 86 | 1008.6 |
| 20260901180533 | 15 | 158 | 3.2 | 6.4 | 0.00 | 0.00 | 0.00 | 86 | 1008.7 |
| 20260901180050 | 16 | 148 | 3.2 | 6.4 | 0.00 | 0.00 | 0.00 | 85 | 1008.6 |
| 20260901175533 | 16 | 128 | 1.6 | 11.3 | 0.00 | 0.00 | 0.00 | 85 | 1008.6 |
| 20260901175032 | 16 | 0 | 4.8 | 11.3 | 0.00 | 0.00 | 0.00 | 84 | 1008.5 |
| 20260901174547 | 16 | 110 | 3.2 | 11.3 | 0.00 | 0.00 | 0.00 | 83 | 1008.5 |
| 20260901174033 | 16 | 156 | 3.2 | 9.7 | 0.00 | 0.00 | 0.00 | 83 | 1008.7 |
| 20260901173532 | 16 | 207 | 1.6 | 9.7 | 0.00 | 0.00 | 0.00 | 82 | 1008.7 |
| 20260901173124 | 17 | 163 | 4.8 | 12.9 | 0.00 | 0.00 | 0.00 | 81 | 1008.7 |
| 20260901172533 | 17 | 205 | 4.8 | 14.5 | 0.00 | 0.00 | 0.00 | 80 | 1008.7 |
| 20260901172033 | 17 | 219 | 4.8 | 14.5 | 0.00 | 0.00 | 0.00 | 79 | 1008.7 |
| 20260901171556 | 17 | 221 | 6.4 | 20.9 | 0.00 | 0.00 | 0.00 | 79 | 1008.7 |
| 20260901171034 | 17 | 212 | 11.3 | 20.9 | 0.00 | 0.00 | 0.00 | 78 | 1008.8 |
| 20260901170533 | 17 | 179 | 11.3 | 20.9 | 0.00 | 0.00 | 0.00 | 78 | 1008.8 |
| 20260901165532 | 17 | 115 | 4.8 | 11.3 | 0.00 | 0.00 | 0.00 | 79 | 1008.7 |
| 20260901165032 | 17 | 207 | 6.4 | 11.3 | 0.00 | 0.00 | 0.00 | 80 | 1008.7 |
| 20260901164557 | 17 | 148 | 3.2 | 9.7 | 0.00 | 0.00 | 0.00 | 80 | 1008.7 |
| 20260901164032 | 17 | 108 | 3.2 | 11.3 | 0.00 | 0.00 | 0.00 | 80 | 1008.8 |
| 20260901163532 | 17 | 179 | 6.4 | 16.1 | 0.00 | 0.00 | 0.00 | 79 | 1008.8 |
| 20260901163108 | 17 | 160 | 6.4 | 16.1 | 0.00 | 0.00 | 0.00 | 79 | 1008.9 |
| 20260901162532 | 17 | 140 | 6.4 | 12.9 | 0.00 | 0.00 | 0.00 | 79 | 1008.9 |
| 20260901162035 | 17 | 183 | 4.8 | 11.3 | 0.00 | 0.00 | 0.00 | 78 | 1008.9 |
| 20260901161557 | 17 | 205 | 1.6 | 11.3 | 0.00 | 0.00 | 0.00 | 78 | 1008.8 |
| 20260901161031 | 17 | 213 | 3.2 | 11.3 | 0.00 | 0.00 | 0.00 | 78 | 1008.8 |
| 20260901160532 | 17 | 181 | 4.8 | 14.5 | 0.00 | 0.00 | 0.00 | 78 | 1008.7 |
| 20260901160056 | 17 | 158 | 4.8 | 14.5 | 0.00 | 0.00 | 0.00 | 78 | 1008.7 |
| 20260901155532 | 17 | 191 | 6.4 | 14.5 | 0.00 | 0.00 | 0.00 | 78 | 1008.6 |
| 20260901155032 | 18 | 171 | 3.2 | 9.7 | 0.00 | 0.00 | 0.00 | 77 | 1008.7 |
| 20260901154548 | 18 | 190 | 3.2 | 9.7 | 0.00 | 0.00 | 0.00 | 77 | 1008.7 |
| 20260901154032 | 18 | 65 | 1.6 | 9.7 | 0.00 | 0.00 | 0.00 | 76 | 1008.8 |
| 20260901153533 | 18 | 153 | 3.2 | 8.0 | 0.00 | 0.00 | 0.00 | 76 | 1008.8 |
| 20260901153046 | 18 | 141 | 3.2 | 11.3 | 0.00 | 0.00 | 0.00 | 75 | 1008.9 |
| 20260901152538 | 18 | 191 | 3.2 | 11.3 | 0.00 | 0.00 | 0.00 | 74 | 1008.9 |
| 20260901152033 | 18 | 184 | 4.8 | 12.9 | 0.00 | 0.00 | 0.00 | 73 | 1008.9 |
| 20260901151558 | 19 | 102 | 4.8 | 19.3 | 0.00 | 0.00 | 0.00 | 73 | 1008.9 |
| 20260901151031 | 19 | 185 | 4.8 | 19.3 | 0.00 | 0.00 | 0.00 | 72 | 1008.9 |
| 20260901150532 | 19 | 155 | 4.8 | 12.9 | 0.00 | 0.00 | 0.00 | 74 | 1008.9 |
| 20260901150055 | 19 | 98 | 4.8 | 12.9 | 0.00 | 0.00 | 0.00 | 73 | 1008.8 |
| 20260901145533 | 19 | 131 | 3.2 | 11.3 | 0.00 | 0.00 | 0.00 | 72 | 1008.9 |
| 20260901145031 | 20 | 135 | 6.4 | 11.3 | 0.00 | 0.00 | 0.00 | 70 | 1009.0 |
| 20260901144547 | 20 | 134 | 4.8 | 11.3 | 0.00 | 0.00 | 0.00 | 72 | 1009.0 |
| 20260901144034 | 20 | 181 | 4.8 | 9.7 | 0.00 | 0.00 | 0.00 | 72 | 1009.0 |
| 20260901143532 | 20 | 146 | 4.8 | 8.0 | 0.00 | 0.00 | 0.00 | 71 | 1008.9 |
| 20260901143049 | 20 | 178 | 3.2 | 8.0 | 0.00 | 0.00 | 0.00 | 72 | 1008.9 |
| 20260901142533 | 20 | 147 | 4.8 | 9.7 | 0.00 | 0.00 | 0.00 | 72 | 1009.0 |
| 20260901142033 | 20 | 95 | 4.8 | 9.7 | 0.00 | 0.00 | 0.00 | 70 | 1009.1 |
| 20260901141552 | 20 | 141 | 3.2 | 6.4 | 0.00 | 0.00 | 0.00 | 71 | 1009.1 |
| 20260901141030 | 19 | 90 | 3.2 | 9.7 | 0.00 | 0.00 | 0.00 | 73 | 1009.1 |
| 20260901140532 | 19 | 99 | 4.8 | 9.7 | 0.00 | 0.00 | 0.00 | 71 | 1009.2 |
| 20260901140047 | 19 | 94 | 6.4 | 9.7 | 0.00 | 0.00 | 0.00 | 70 | 1009.3 |
| 20260901135532 | 19 | 143 | 3.2 | 8.0 | 0.00 | 0.00 | 0.00 | 72 | 1009.3 |
| 20260901135033 | 18 | 109 | 3.2 | 8.0 | 0.00 | 0.00 | 0.00 | 73 | 1009.3 |
| 20260901134547 | 19 | 0 | 3.2 | 8.0 | 0.00 | 0.00 | 0.00 | 73 | 1009.5 |
| 20260901134031 | 19 | 124 | 4.8 | 8.0 | 0.00 | 0.00 | 0.00 | 73 | 1009.4 |
| 20260901133536 | 19 | 100 | 3.2 | 9.7 | 0.00 | 0.00 | 0.00 | 73 | 1009.4 |
| 20260901133057 | 18 | 156 | 3.2 | 9.7 | 0.00 | 0.00 | 0.00 | 74 | 1009.5 |
| 20260901132531 | 18 | 157 | 3.2 | 9.7 | 0.00 | 0.00 | 0.00 | 73 | 1009.4 |
| 20260901132031 | 18 | 113 | 1.6 | 4.8 | 0.00 | 0.00 | 0.00 | 73 | 1009.5 |
| 20260901131548 | 18 | 158 | 1.6 | 4.8 | 0.00 | 0.00 | 0.00 | 72 | 1009.6 |
| 20260901131035 | 19 | 148 | 1.6 | 6.4 | 0.00 | 0.00 | 0.00 | 71 | 1009.7 |
| 20260901130532 | 20 | 181 | 3.2 | 6.4 | 0.00 | 0.00 | 0.00 | 71 | 1009.7 |
| 20260901130048 | 20 | 233 | 1.6 | 6.4 | 0.00 | 0.00 | 0.00 | 70 | 1009.8 |
| 20260901125531 | 20 | 0 | 3.2 | 11.3 | 0.00 | 0.00 | 0.00 | 69 | 1009.8 |
| 20260901125032 | 19 | 137 | 3.2 | 11.3 | 0.00 | 0.00 | 0.00 | 72 | 1009.8 |
| 20260901124547 | 19 | 119 | 3.2 | 9.7 | 0.00 | 0.00 | 0.00 | 73 | 1009.8 |
| 20260901124033 | 19 | 173 | 4.8 | 9.7 | 0.00 | 0.00 | 0.00 | 72 | 1009.8 |
| 20260901123531 | 19 | 0 | 3.2 | 9.7 | 0.00 | 0.00 | 0.00 | 71 | 1009.9 |
| 20260901123053 | 19 | 107 | 4.8 | 9.7 | 0.00 | 0.00 | 0.00 | 73 | 1009.8 |
| 20260901122531 | 18 | 163 | 0.0 | 8.0 | 0.00 | 0.00 | 0.00 | 73 | 1009.9 |
| 20260901122031 | 18 | 199 | 3.2 | 8.0 | 0.00 | 0.00 | 0.00 | 74 | 1009.9 |
| 20260901121553 | 18 | 98 | 3.2 | 6.4 | 0.00 | 0.00 | 0.00 | 73 | 1009.9 |
| 20260901121035 | 18 | 292 | 1.6 | 6.4 | 0.00 | 0.00 | 0.00 | 74 | 1009.9 |
| 20260901120531 | 18 | 201 | 3.2 | 8.0 | 0.00 | 0.00 | 0.00 | 75 | 1009.9 |
| 20260901120059 | 17 | 212 | 1.6 | 8.0 | 0.00 | 0.00 | 0.00 | 78 | 1009.9 |
| 20260901115531 | 17 | 134 | 3.2 | 6.4 | 0.00 | 0.00 | 0.00 | 77 | 1010.0 |
| 20260901115035 | 17 | 139 | 3.2 | 6.4 | 0.00 | 0.00 | 0.00 | 77 | 1009.9 |